Simultaneous Nadir Overpasses (SNOs) Predictions

Prediction of SNOs between GOES-17 and NPP Satellite Orbit:

Table of predicted SNOs for the next 14.0 days since TLE Epoch: 12/31/2022
Index Date Time (GOES-17) GOES-17 Lat,Lon NPP Lat,Lon Distance(km) Time Diff (sec)
1 12/31/2022 10:32:05 0.01,-137.33 -0.09,-136.79 61.61 80
2 01/02/2023 22:35:20 -0.02,-137.32 -0.06,-137.57 28.55 80
3 01/03/2023 22:19:16 -0.02,-137.31 0.96,-133.04 486.82 80
4 01/05/2023 10:41:05 0.02,-137.30 0.27,-138.30 115.11 80
5 01/06/2023 10:19:41 0.02,-137.29 -0.75,-133.78 399.84 80
6 01/07/2023 22:41:40 -0.02,-137.26 -0.41,-139.09 207.45 80
7 01/08/2023 22:25:36 -0.01,-137.25 0.62,-134.56 307.20 80
8 01/10/2023 10:47:24 0.01,-137.23 0.61,-139.82 295.51 80
9 01/11/2023 10:26:01 0.00,-137.22 -0.42,-135.29 218.84 80
10 01/12/2023 22:50:38 -0.00,-137.18 -0.78,-140.59 389.15 80
11 01/13/2023 22:29:15 0.00,-137.17 0.25,-136.07 125.02 80
